This demonstration page uses our WeatherBlox Daily Observations layout. Learn more.

Left ArrowRight Arrow

Hourly Observations for December 28, 2021

Temp ( °F °C ) Dew Point ( °F °C ) Humidity (%) Winds ( mph kmh ) Pressure ( in mb ) Visibility ( mi km ) Precip ( " mm )
12:56 am 00:56 Mostly Cloudy 30 -0.9 19 -7.5 61 61 E 7 11 29.73 1007 10 16 0.00 0.00
1:56 am 01:56 Mostly Cloudy 34 0.9 17 -8.6 49 49 SE 13 20 29.68 1005 10 16 0.00 0.00
2:56 am 02:56 Mostly Cloudy 33 0.7 18 -8 53 53 SE 13 20 29.61 1003 10 16 0.00 0.00
3:56 am 03:56 Mostly Cloudy 35 1.6 17 -8.5 47 47 ESE 6 9 29.58 1002 10 16 0.00 0.00
4:56 am 04:56 Mostly Cloudy 37 2.7 15 -9.3 41 41 ESE 9 15 29.53 1000 10 16 0.00 0.00
5:56 am 05:56 Mostly Cloudy 36 2.2 15 -9.4 42 42 NNE 6 9 29.51 999 10 16 0.00 0.00
6:56 am 06:56 Mostly Cloudy 35 1.5 15 -9.4 45 45 E 9 15 29.49 999 10 16 0.00 0.00
7:56 am 07:56 Mostly Cloudy 33 0.7 16 -9.1 48 48 E 6 9 29.50 999 10 16 0.00 0.00
8:56 am 08:56 undefined 35 1.9 25 -4 65 65 Calm 29.51 999 10 16 0.00 0.00
9:56 am 09:56 undefined 38 3.4 29 -1.7 70 70 SE 8 13 29.51 999 10 16 0.00 0.00
10:56 am 10:56 undefined 42 5.5 31 -0.3 67 67 SSE 3 6 29.52 1000 10 16 0.00 0.00
11:56 am 11:56 Sunny 45 7.2 29 -1.5 54 54 NW 13 20 29.53 1000 10 16 0.00 0.00
12:56 pm 12:56 undefined 45 7.2 23 -5.2 41 41 WNW 18 30 29.54 1000 10 16 0.00 0.00
1:56 pm 13:56 undefined 41 5.2 18 -8 38 38 NW 18 30 29.58 1002 10 16 0.00 0.00
2:56 pm 14:56 Sunny 39 3.9 16 -8.8 39 39 NW 21 33 29.66 1004 10 16 0.00 0.00
3:56 pm 15:56 Sunny 28 -2 10 -12.4 45 45 NNW 22 35 29.73 1007 10 16 0.00 0.00
4:56 pm 16:56 Mostly Cloudy 24 -4.6 9 -13 52 52 NW 21 33 29.78 1009 10 16 0.00 0.00
5:56 pm 17:56 Clear 21 -6.3 4 -15.3 49 49 NW 21 33 29.84 1010 10 16 0.00 0.00
6:56 pm 18:56 Clear 19 -7.5 3 -16.2 50 50 NNW 12 19 29.87 1012 10 16 0.00 0.00
7:56 pm 19:56 Clear 17 -8.1 3 -16.2 53 53 N 13 20 29.91 1013 10 16 0.00 0.00
8:56 pm 20:56 Clear 16 -8.8 2 -16.5 54 54 N 9 15 29.95 1014 10 16 0.00 0.00
9:56 pm 21:56 Clear 16 -9 2 -16.6 54 54 NNW 12 19 29.96 1015 10 16 0.00 0.00
10:56 pm 22:56 Clear 15 -9.3 2 -16.5 56 56 NNW 10 17 29.98 1015 10 16 0.00 0.00
11:56 pm 23:56 Clear 14 -9.9 2 -16.6 58 58 N 10 17 29.95 1014 10 16 0.00 0.00

Powered by AerisWeather